Time,TemperatureF,DewpointF,PressureIn,WindDirection,WindDirectionDegrees,WindSpeedMPH,WindSpeedGustMPH,Humidity,HourlyPrecipIn,Conditions,Clouds,dailyrainin,SoftwareType,DateUTC
2013-05-20 00:00:00,47.1,33.5,30.33,NNW,337,0.0,0.0,59,0.00,,SCT,0.00,VWS V14.01,2013-05-20 07:00:00,
2013-05-20 00:05:00,47.1,33.5,30.33,NNW,337,0.0,0.0,59,0.00,,SCT,0.00,VWS V14.01,2013-05-20 07:05:00,
2013-05-20 00:10:00,46.9,33.4,30.33,NNW,337,0.0,0.0,59,0.00,,SCT,0.00,VWS V14.01,2013-05-20 07:10:00,
2013-05-20 00:15:00,46.9,33.4,30.33,NNW,337,0.0,0.0,59,0.00,,SCT,0.00,VWS V14.01,2013-05-20 07:15:00,
2013-05-20 00:20:00,46.8,33.2,30.30,NNW,337,0.0,0.0,59,0.00,,SCT,0.00,VWS V14.01,2013-05-20 07:20:00,
2013-05-20 00:25:00,46.6,33.0,30.30,NNW,337,0.0,0.0,59,0.00,,SCT,0.00,VWS V14.01,2013-05-20 07:25:00,
2013-05-20 00:30:00,46.4,32.9,30.30,NNW,337,0.0,0.0,59,0.00,,SCT,0.00,VWS V14.01,2013-05-20 07:30:00,
2013-05-20 00:35:00,46.2,33.1,30.30,NNW,337,0.0,0.0,60,0.00,,SCT,0.00,VWS V14.01,2013-05-20 07:35:00,
2013-05-20 00:40:00,46.0,33.4,30.30,NNW,337,0.0,0.0,61,0.00,,SCT,0.00,VWS V14.01,2013-05-20 07:40:00,
2013-05-20 00:45:00,45.7,32.6,30.30,NNW,337,0.0,0.0,60,0.00,,SCT,0.00,VWS V14.01,2013-05-20 07:45:00,
2013-05-20 00:50:00,45.5,32.4,30.30,East,91,0.0,0.0,60,0.00,,SCT,0.00,VWS V14.01,2013-05-20 07:50:00,
2013-05-20 00:55:00,45.1,32.1,30.30,East,92,0.0,0.0,60,0.00,,SCT,0.00,VWS V14.01,2013-05-20 07:55:00,
2013-05-20 01:01:00,45.1,32.5,30.30,East,92,0.0,0.0,61,0.00,,SCT,0.00,VWS V14.01,2013-05-20 08:01:00,
2013-05-20 01:06:00,45.1,32.1,30.30,East,92,0.0,0.0,60,0.00,,SCT,0.00,VWS V14.01,2013-05-20 08:06:00,
2013-05-20 01:11:00,44.8,32.2,30.30,East,92,0.0,0.0,61,0.00,,SCT,0.00,VWS V14.01,2013-05-20 08:11:00,
2013-05-20 01:16:00,44.8,32.2,30.30,East,92,0.0,0.0,61,0.00,,SCT,0.00,VWS V14.01,2013-05-20 08:16:00,
2013-05-20 01:21:00,44.6,32.0,30.30,East,92,0.0,0.0,61,0.00,,SCT,0.00,VWS V14.01,2013-05-20 08:21:00,
2013-05-20 01:26:00,44.8,32.2,30.30,East,92,0.0,0.0,61,0.00,,SCT,0.00,VWS V14.01,2013-05-20 08:26:00,
2013-05-20 01:31:00,44.8,32.2,30.30,East,92,0.0,0.0,61,0.00,,SCT,0.00,VWS V14.01,2013-05-20 08:31:00,
2013-05-20 01:36:00,45.0,32.3,30.33,East,92,0.0,0.0,61,0.00,,SCT,0.00,VWS V14.01,2013-05-20 08:36:00,
2013-05-20 01:41:00,45.0,32.3,30.33,East,92,0.0,0.0,61,0.00,,SCT,0.00,VWS V14.01,2013-05-20 08:41:00,
2013-05-20 01:46:00,45.0,32.3,30.33,East,92,0.0,0.0,61,0.00,,SCT,0.00,VWS V14.01,2013-05-20 08:46:00,
2013-05-20 01:51:00,44.8,32.2,30.30,East,92,0.0,0.0,61,0.00,,SCT,0.00,VWS V14.01,2013-05-20 08:51:00,
2013-05-20 01:56:00,44.8,32.2,30.30,East,92,0.0,0.0,61,0.00,,SCT,0.00,VWS V14.01,2013-05-20 08:56:00,
2013-05-20 02:01:00,44.6,32.0,30.30,East,92,0.0,0.0,61,0.00,,SCT,0.00,VWS V14.01,2013-05-20 09:01:00,
2013-05-20 02:06:00,44.6,32.0,30.30,East,92,0.0,0.0,61,0.00,,SCT,0.00,VWS V14.01,2013-05-20 09:06:00,
2013-05-20 02:11:00,44.6,32.0,30.30,East,92,0.0,0.0,61,0.00,,SCT,0.00,VWS V14.01,2013-05-20 09:11:00,
2013-05-20 02:16:00,44.6,32.0,30.30,East,92,0.0,0.0,61,0.00,,SCT,0.00,VWS V14.01,2013-05-20 09:16:00,
2013-05-20 02:21:00,44.6,32.0,30.30,East,92,0.0,0.0,61,0.00,,SCT,0.00,VWS V14.01,2013-05-20 09:21:00,
2013-05-20 02:26:00,44.2,32.1,30.30,East,92,0.0,0.0,62,0.00,,SCT,0.00,VWS V14.01,2013-05-20 09:26:00,
2013-05-20 02:32:00,44.2,31.7,30.30,East,92,0.0,0.0,61,0.00,,SCT,0.00,VWS V14.01,2013-05-20 09:32:00,
2013-05-20 02:37:00,44.1,31.9,30.30,East,92,0.0,0.0,62,0.00,,SCT,0.00,VWS V14.01,2013-05-20 09:37:00,
2013-05-20 02:42:00,44.2,32.1,30.30,East,92,0.0,0.0,62,0.00,,SCT,0.00,VWS V14.01,2013-05-20 09:42:00,
2013-05-20 02:47:00,44.2,32.1,30.30,East,96,0.0,0.0,62,0.00,,SCT,0.00,VWS V14.01,2013-05-20 09:47:00,
2013-05-20 02:52:00,44.4,32.2,30.30,East,96,0.0,0.0,62,0.00,,SCT,0.00,VWS V14.01,2013-05-20 09:52:00,
2013-05-20 02:57:00,44.4,32.2,30.30,East,96,0.0,0.0,62,0.00,,SCT,0.00,VWS V14.01,2013-05-20 09:57:00,
2013-05-20 03:02:00,44.2,32.1,30.30,East,96,0.0,0.0,62,0.00,,SCT,0.00,VWS V14.01,2013-05-20 10:02:00,
2013-05-20 03:07:00,44.4,32.6,30.30,East,96,0.0,0.0,63,0.00,,SCT,0.00,VWS V14.01,2013-05-20 10:07:00,
2013-05-20 03:12:00,44.4,32.6,30.30,East,96,0.0,0.0,63,0.00,,SCT,0.00,VWS V14.01,2013-05-20 10:12:00,
2013-05-20 03:17:00,44.4,33.0,30.30,East,96,0.0,0.0,64,0.00,,SCT,0.00,VWS V14.01,2013-05-20 10:17:00,
2013-05-20 03:22:00,44.4,33.0,30.30,East,96,0.0,0.0,64,0.00,,SCT,0.00,VWS V14.01,2013-05-20 10:22:00,
2013-05-20 03:27:00,44.2,32.8,30.30,East,96,0.0,0.0,64,0.00,,SCT,0.00,VWS V14.01,2013-05-20 10:27:00,
2013-05-20 03:32:00,44.1,32.7,30.30,East,96,0.0,0.0,64,0.00,,SCT,0.00,VWS V14.01,2013-05-20 10:32:00,
2013-05-20 03:38:00,43.9,32.1,30.30,East,96,0.0,0.0,63,0.00,,SCT,0.00,VWS V14.01,2013-05-20 10:38:00,
2013-05-20 03:43:00,43.7,32.0,30.30,East,96,0.0,0.0,63,0.00,,SCT,0.00,VWS V14.01,2013-05-20 10:43:00,
2013-05-20 03:48:00,43.2,31.4,30.30,East,98,0.0,0.0,63,0.00,,SCT,0.00,VWS V14.01,2013-05-20 10:48:00,
2013-05-20 03:53:00,42.1,30.0,30.30,ESE,112,0.0,0.0,62,0.00,,SCT,0.00,VWS V14.01,2013-05-20 10:53:00,
2013-05-20 03:58:00,41.4,30.9,30.30,SSW,194,0.0,0.0,66,0.00,,SCT,0.00,VWS V14.01,2013-05-20 10:58:00,
2013-05-20 04:03:00,41.0,31.3,30.30,SSW,194,0.0,0.0,68,0.00,,SCT,0.00,VWS V14.01,2013-05-20 11:03:00,
2013-05-20 04:08:00,40.6,31.6,30.30,SSW,194,0.0,0.0,70,0.00,,SCT,0.00,VWS V14.01,2013-05-20 11:08:00,
2013-05-20 04:13:00,40.3,32.0,30.30,ESE,105,2.2,6.3,72,0.00,,SCT,0.00,VWS V14.01,2013-05-20 11:13:00,
2013-05-20 04:18:00,39.9,32.0,30.30,South,173,0.0,4.0,73,0.00,,SCT,0.00,VWS V14.01,2013-05-20 11:18:00,
2013-05-20 04:23:00,39.9,32.0,30.30,SSE,167,0.0,4.0,73,0.00,,SCT,0.00,VWS V14.01,2013-05-20 11:23:00,
2013-05-20 04:28:00,39.9,32.3,30.30,SSE,167,0.0,4.0,74,0.00,,SCT,0.00,VWS V14.01,2013-05-20 11:28:00,
2013-05-20 04:33:00,39.9,32.3,30.30,SSW,213,0.0,0.0,74,0.00,,SCT,0.00,VWS V14.01,2013-05-20 11:33:00,
2013-05-20 04:38:00,39.9,32.3,30.30,SSW,203,0.0,0.0,74,0.00,,SCT,0.00,VWS V14.01,2013-05-20 11:38:00,
2013-05-20 04:43:00,39.7,32.1,30.30,SE,126,0.0,3.6,74,0.00,,SCT,0.00,VWS V14.01,2013-05-20 11:43:00,
2013-05-20 04:48:00,39.7,32.1,30.30,SE,135,0.0,0.0,74,0.00,,SCT,0.00,VWS V14.01,2013-05-20 11:48:00,
2013-05-20 04:54:00,39.6,32.3,30.30,SE,136,0.0,0.0,75,0.00,,SCT,0.00,VWS V14.01,2013-05-20 11:54:00,
2013-05-20 04:59:00,39.4,32.1,30.30,South,178,0.0,0.0,75,0.00,,SCT,0.00,VWS V14.01,2013-05-20 11:59:00,
2013-05-20 05:04:00,39.4,32.1,30.30,SE,129,0.0,0.0,75,0.00,,SCT,0.00,VWS V14.01,2013-05-20 12:04:00,
2013-05-20 05:09:00,39.2,32.3,30.30,SE,130,0.0,0.0,76,0.00,,SCT,0.00,VWS V14.01,2013-05-20 12:09:00,
2013-05-20 05:14:00,39.2,32.3,30.30,SE,137,0.0,0.0,76,0.00,,SCT,0.00,VWS V14.01,2013-05-20 12:14:00,
2013-05-20 05:19:00,39.0,32.1,30.30,SSE,162,0.0,0.0,76,0.00,,SCT,0.00,VWS V14.01,2013-05-20 12:19:00,
2013-05-20 05:24:00,38.8,31.9,30.30,South,183,4.0,4.9,76,0.00,,SCT,0.00,VWS V14.01,2013-05-20 12:24:00,
2013-05-20 05:29:00,38.7,32.1,30.30,SE,136,0.0,4.9,77,0.00,,SCT,0.00,VWS V14.01,2013-05-20 12:29:00,
2013-05-20 05:34:00,38.8,32.6,30.30,SSE,163,3.6,5.8,78,0.00,,SCT,0.00,VWS V14.01,2013-05-20 12:34:00,
2013-05-20 05:39:00,38.7,32.1,30.30,South,179,0.0,5.8,77,0.00,,SCT,0.00,VWS V14.01,2013-05-20 12:39:00,
2013-05-20 05:44:00,38.7,32.4,30.30,SSW,198,0.0,5.8,78,0.00,,SCT,0.00,VWS V14.01,2013-05-20 12:44:00,
2013-05-20 05:49:00,38.7,32.1,30.30,South,174,0.0,0.0,77,0.00,,SCT,0.00,VWS V14.01,2013-05-20 12:49:00,
2013-05-20 05:54:00,38.8,32.3,30.30,South,181,3.6,4.5,77,0.00,,SCT,0.00,VWS V14.01,2013-05-20 12:54:00,
2013-05-20 05:59:00,38.8,32.3,30.30,SSE,150,0.0,4.5,77,0.00,,SCT,0.00,VWS V14.01,2013-05-20 12:59:00,
2013-05-20 06:05:00,38.7,32.1,30.30,SSE,153,0.0,4.9,77,0.00,,SCT,0.00,VWS V14.01,2013-05-20 13:05:00,
2013-05-20 06:10:00,38.7,32.1,30.30,South,172,0.0,6.3,77,0.00,,SCT,0.00,VWS V14.01,2013-05-20 13:10:00,
2013-05-20 06:15:00,38.7,32.1,30.30,SW,225,0.0,6.3,77,0.00,,SCT,0.00,VWS V14.01,2013-05-20 13:15:00,
2013-05-20 06:20:00,38.7,32.4,30.30,SE,140,0.0,0.0,78,0.00,,SCT,0.00,VWS V14.01,2013-05-20 13:20:00,
2013-05-20 06:25:00,38.7,32.4,30.30,ENE,73,3.1,4.9,78,0.00,,SCT,0.00,VWS V14.01,2013-05-20 13:25:00,
2013-05-20 06:30:00,38.7,32.4,30.30,SE,136,0.0,0.0,78,0.00,,SCT,0.00,VWS V14.01,2013-05-20 13:30:00,
2013-05-20 06:35:00,38.7,32.4,30.27,ESE,115,0.0,5.4,78,0.00,,SCT,0.00,VWS V14.01,2013-05-20 13:35:00,
2013-05-20 06:40:00,38.5,32.2,30.27,ESE,114,0.0,5.4,78,0.00,,SCT,0.00,VWS V14.01,2013-05-20 13:40:00,
2013-05-20 06:45:00,38.3,32.0,30.27,SE,125,2.7,4.9,78,0.00,,SCT,0.00,VWS V14.01,2013-05-20 13:45:00,
2013-05-20 06:50:00,38.1,32.2,30.27,SE,127,0.0,4.9,79,0.00,,SCT,0.00,VWS V14.01,2013-05-20 13:50:00,
2013-05-20 06:55:00,38.1,32.5,30.27,ESE,106,3.6,4.9,80,0.00,,SCT,0.00,VWS V14.01,2013-05-20 13:55:00,
2013-05-20 07:00:00,38.5,33.2,30.27,SE,133,0.0,0.0,81,0.00,,SCT,0.00,VWS V14.01,2013-05-20 14:00:00,
2013-05-20 07:05:00,38.3,32.7,30.30,SSW,195,0.0,5.4,80,0.00,,SCT,0.00,VWS V14.01,2013-05-20 14:05:00,
2013-05-20 07:11:00,38.5,33.2,30.30,SSE,149,5.4,5.4,81,0.00,,SCT,0.00,VWS V14.01,2013-05-20 14:11:00,
2013-05-20 07:16:00,38.5,33.2,30.30,SSE,150,2.7,4.9,81,0.00,,SCT,0.00,VWS V14.01,2013-05-20 14:16:00,
2013-05-20 07:21:00,38.7,33.3,30.27,SSE,161,0.0,5.4,81,0.00,,SCT,0.00,VWS V14.01,2013-05-20 14:21:00,
2013-05-20 07:26:00,38.8,33.5,30.27,East,88,0.0,5.4,81,0.00,,SCT,0.00,VWS V14.01,2013-05-20 14:26:00,
2013-05-20 07:31:00,39.2,33.6,30.27,SSE,153,0.0,0.0,80,0.00,,SCT,0.00,VWS V14.01,2013-05-20 14:31:00,
2013-05-20 07:36:00,39.6,33.9,30.27,ESE,114,0.0,0.0,80,0.00,,SCT,0.00,VWS V14.01,2013-05-20 14:36:00,
2013-05-20 07:41:00,39.9,34.0,30.27,East,87,0.0,4.0,79,0.00,,SCT,0.00,VWS V14.01,2013-05-20 14:41:00,
2013-05-20 07:46:00,40.3,34.3,30.27,South,169,3.6,5.8,79,0.00,,SCT,0.00,VWS V14.01,2013-05-20 14:46:00,
2013-05-20 07:51:00,40.5,34.2,30.27,ESE,122,5.8,8.7,78,0.00,,SCT,0.00,VWS V14.01,2013-05-20 14:51:00,
2013-05-20 07:56:00,40.8,34.5,30.27,SE,144,5.4,8.7,78,0.00,,SCT,0.00,VWS V14.01,2013-05-20 14:56:00,
2013-05-20 08:01:00,41.2,34.5,30.27,ESE,123,2.2,4.0,77,0.00,,SCT,0.00,VWS V14.01,2013-05-20 15:01:00,
2013-05-20 08:06:00,41.7,34.7,30.27,SE,145,6.3,7.6,76,0.00,,SCT,0.00,VWS V14.01,2013-05-20 15:06:00,
2013-05-20 08:11:00,42.3,34.9,30.27,SE,140,6.3,8.1,75,0.00,,SCT,0.00,VWS V14.01,2013-05-20 15:11:00,
2013-05-20 08:16:00,42.8,35.1,30.27,ESE,123,2.7,5.4,74,0.00,,SCT,0.00,VWS V14.01,2013-05-20 15:16:00,
2013-05-20 08:22:00,43.5,35.8,30.27,SSE,166,0.0,5.4,74,0.00,,SCT,0.00,VWS V14.01,2013-05-20 15:22:00,
2013-05-20 08:27:00,44.1,35.3,30.27,SE,135,3.6,6.3,71,0.00,,SCT,0.00,VWS V14.01,2013-05-20 15:27:00,
2013-05-20 08:32:00,44.2,35.1,30.27,SE,125,4.0,6.3,70,0.00,,SCT,0.00,VWS V14.01,2013-05-20 15:32:00,
2013-05-20 08:37:00,44.8,35.6,30.27,SE,140,2.7,6.3,70,0.00,,SCT,0.00,VWS V14.01,2013-05-20 15:37:00,
2013-05-20 08:42:00,45.5,35.9,30.27,ESE,108,3.1,6.3,69,0.00,,SCT,0.00,VWS V14.01,2013-05-20 15:42:00,
2013-05-20 08:47:00,46.0,36.1,30.27,ESE,106,0.0,0.0,68,0.00,,SCT,0.00,VWS V14.01,2013-05-20 15:47:00,
2013-05-20 08:52:00,46.9,35.8,30.27,South,175,6.3,6.3,65,0.00,,SCT,0.00,VWS V14.01,2013-05-20 15:52:00,
2013-05-20 08:57:00,47.5,34.7,30.27,SE,141,4.9,7.2,61,0.00,,SCT,0.00,VWS V14.01,2013-05-20 15:57:00,
2013-05-20 09:02:00,48.0,35.2,30.27,SSW,192,2.7,5.4,61,0.00,,SCT,0.00,VWS V14.01,2013-05-20 16:02:00,
2013-05-20 09:07:00,48.7,34.6,30.27,SSW,198,5.8,6.3,58,0.00,,SCT,0.00,VWS V14.01,2013-05-20 16:07:00,
2013-05-20 09:12:00,49.3,33.8,30.27,South,171,4.0,6.3,55,0.00,,SCT,0.00,VWS V14.01,2013-05-20 16:12:00,
2013-05-20 09:17:00,49.8,33.9,30.27,East,96,0.0,6.3,54,0.00,,SCT,0.00,VWS V14.01,2013-05-20 16:17:00,
2013-05-20 09:23:00,50.4,33.4,30.24,South,183,5.4,8.3,52,0.00,,SCT,0.00,VWS V14.01,2013-05-20 16:23:00,
2013-05-20 09:28:00,50.9,33.4,30.24,SE,129,0.0,8.3,51,0.00,,SCT,0.00,VWS V14.01,2013-05-20 16:28:00,
2013-05-20 09:33:00,51.6,33.1,30.24,South,180,2.7,5.8,49,0.00,,SCT,0.00,VWS V14.01,2013-05-20 16:33:00,
2013-05-20 09:38:00,51.8,32.2,30.24,SE,137,8.1,8.7,47,0.00,,SCT,0.00,VWS V14.01,2013-05-20 16:38:00,
2013-05-20 09:43:00,52.2,32.0,30.24,WSW,251,3.6,8.7,46,0.00,,SCT,0.00,VWS V14.01,2013-05-20 16:43:00,
2013-05-20 09:48:00,52.7,32.5,30.24,WSW,241,3.1,6.3,46,0.00,,SCT,0.00,VWS V14.01,2013-05-20 16:48:00,
2013-05-20 09:53:00,53.1,32.8,30.24,ESE,116,4.9,6.3,46,0.00,,SCT,0.00,VWS V14.01,2013-05-20 16:53:00,
2013-05-20 09:58:00,53.8,33.0,30.24,ESE,112,3.1,6.3,45,0.00,,SCT,0.00,VWS V14.01,2013-05-20 16:58:00,
2013-05-20 10:03:00,54.3,31.7,30.24,South,179,3.1,5.8,42,0.00,,SCT,0.00,VWS V14.01,2013-05-20 17:03:00,
2013-05-20 10:08:00,54.5,30.1,30.24,SE,144,2.7,5.8,39,0.00,,SCT,0.00,VWS V14.01,2013-05-20 17:08:00,
2013-05-20 10:13:00,54.7,30.2,30.24,SW,218,5.4,5.8,39,0.00,,SCT,0.00,VWS V14.01,2013-05-20 17:13:00,
2013-05-20 10:18:00,55.4,30.9,30.24,South,171,5.8,6.3,39,0.00,,SCT,0.00,VWS V14.01,2013-05-20 17:18:00,
2013-05-20 10:23:00,55.6,30.4,30.24,SE,137,5.8,8.3,38,0.00,,SCT,0.00,VWS V14.01,2013-05-20 17:23:00,
2013-05-20 10:29:00,55.8,30.6,30.24,SE,139,8.3,8.3,38,0.00,,SCT,0.00,VWS V14.01,2013-05-20 17:29:00,
2013-05-20 10:34:00,56.1,31.5,30.24,SW,220,4.0,6.3,39,0.00,,SCT,0.00,VWS V14.01,2013-05-20 17:34:00,
2013-05-20 10:39:00,56.3,31.7,30.24,SSW,203,0.0,6.3,39,0.00,,SCT,0.00,VWS V14.01,2013-05-20 17:39:00,
2013-05-20 10:44:00,57.0,33.6,30.24,SE,136,3.6,6.3,41,0.00,,SCT,0.00,VWS V14.01,2013-05-20 17:44:00,
2013-05-20 10:49:00,57.7,33.0,30.24,SE,137,0.0,5.4,39,0.00,,SCT,0.00,VWS V14.01,2013-05-20 17:49:00,
2013-05-20 10:54:00,58.1,33.3,30.24,ESE,106,0.0,5.8,39,0.00,,SCT,0.00,VWS V14.01,2013-05-20 17:54:00,
2013-05-20 10:59:00,58.1,32.7,30.24,ENE,57,3.6,7.6,38,0.00,,SCT,0.00,VWS V14.01,2013-05-20 17:59:00,
2013-05-20 11:04:00,58.5,33.0,30.24,SE,145,3.1,4.9,38,0.00,,SCT,0.00,VWS V14.01,2013-05-20 18:04:00,
2013-05-20 11:09:00,58.6,32.5,30.24,WSW,246,3.1,8.7,37,0.00,,SCT,0.00,VWS V14.01,2013-05-20 18:09:00,
2013-05-20 11:14:00,58.8,32.6,30.24,SW,228,0.0,8.7,37,0.00,,SCT,0.00,VWS V14.01,2013-05-20 18:14:00,
2013-05-20 11:19:00,58.8,32.6,30.21,SSW,192,0.0,0.0,37,0.00,,SCT,0.00,VWS V14.01,2013-05-20 18:19:00,
2013-05-20 11:24:00,59.5,32.6,30.21,SSE,156,2.7,4.9,36,0.00,,SCT,0.00,VWS V14.01,2013-05-20 18:24:00,
2013-05-20 11:29:00,60.1,33.8,30.21,SSE,152,0.0,5.8,37,0.00,,SCT,0.00,VWS V14.01,2013-05-20 18:29:00,
2013-05-20 11:35:00,60.6,33.5,30.21,SSE,151,6.3,8.1,36,0.00,,SCT,0.00,VWS V14.01,2013-05-20 18:35:00,
2013-05-20 11:40:00,61.0,33.2,30.21,SSW,193,0.0,8.1,35,0.00,,SCT,0.00,VWS V14.01,2013-05-20 18:40:00,
2013-05-20 11:45:00,61.0,33.2,30.21,South,187,2.7,8.1,35,0.00,,SCT,0.00,VWS V14.01,2013-05-20 18:45:00,
2013-05-20 11:50:00,61.3,33.5,30.21,SE,129,0.0,6.3,35,0.00,,SCT,0.00,VWS V14.01,2013-05-20 18:50:00,
2013-05-20 11:55:00,62.2,34.3,30.21,SE,132,5.4,6.3,35,0.00,,SCT,0.00,VWS V14.01,2013-05-20 18:55:00,
2013-05-20 12:00:00,62.4,34.4,30.21,SE,137,0.0,0.0,35,0.00,,SCT,0.00,VWS V14.01,2013-05-20 19:00:00,
2013-05-20 12:05:00,62.8,34.8,30.21,East,84,0.0,5.8,35,0.00,,SCT,0.00,VWS V14.01,2013-05-20 19:05:00,
2013-05-20 12:10:00,63.9,35.0,30.21,West,262,0.0,5.8,34,0.00,,SCT,0.00,VWS V14.01,2013-05-20 19:10:00,
2013-05-20 12:15:00,64.0,35.1,30.21,ESE,123,4.9,4.9,34,0.00,,SCT,0.00,VWS V14.01,2013-05-20 19:15:00,
2013-05-20 12:20:00,64.9,35.2,30.21,ESE,109,0.0,5.8,33,0.00,,SCT,0.00,VWS V14.01,2013-05-20 19:20:00,
2013-05-20 12:25:00,66.0,36.1,30.21,ENE,70,0.0,5.8,33,0.00,,SCT,0.00,VWS V14.01,2013-05-20 19:25:00,
2013-05-20 12:30:00,66.2,36.3,30.21,ENE,69,0.0,0.0,33,0.00,,SCT,0.00,VWS V14.01,2013-05-20 19:30:00,
2013-05-20 12:35:00,66.6,35.8,30.18,NW,313,0.0,0.0,32,0.00,,SCT,0.00,VWS V14.01,2013-05-20 19:35:00,
2013-05-20 12:41:00,67.1,36.3,30.18,NNW,348,0.0,0.0,32,0.00,,SCT,0.00,VWS V14.01,2013-05-20 19:41:00,
2013-05-20 12:46:00,66.9,36.1,30.18,SE,128,5.4,5.4,32,0.00,,SCT,0.00,VWS V14.01,2013-05-20 19:46:00,
2013-05-20 12:51:00,66.6,35.0,30.18,SW,224,0.0,8.3,31,0.00,,SCT,0.00,VWS V14.01,2013-05-20 19:51:00,
2013-05-20 12:56:00,66.9,36.1,30.18,NW,319,0.0,8.3,32,0.00,,SCT,0.00,VWS V14.01,2013-05-20 19:56:00,
2013-05-20 13:01:00,68.4,36.6,30.18,SE,126,0.0,0.0,31,0.00,,SCT,0.00,VWS V14.01,2013-05-20 20:01:00,
2013-05-20 13:06:00,68.7,36.1,30.18,East,88,4.0,6.3,30,0.00,,SCT,0.00,VWS V14.01,2013-05-20 20:06:00,
2013-05-20 13:11:00,68.2,34.7,30.18,SSE,148,2.7,8.1,29,0.00,,SCT,0.00,VWS V14.01,2013-05-20 20:11:00,
2013-05-20 13:16:00,68.4,35.8,30.18,East,94,0.0,0.0,30,0.00,,SCT,0.00,VWS V14.01,2013-05-20 20:16:00,
2013-05-20 13:21:00,69.3,35.7,30.18,SSW,192,0.0,5.8,29,0.00,,SCT,0.00,VWS V14.01,2013-05-20 20:21:00,
2013-05-20 13:26:00,69.4,35.0,30.18,NNW,333,6.3,6.3,28,0.00,,SCT,0.00,VWS V14.01,2013-05-20 20:26:00,
2013-05-20 13:31:00,70.0,35.4,30.18,SE,128,0.0,0.0,28,0.00,,SCT,0.00,VWS V14.01,2013-05-20 20:31:00,
2013-05-20 13:36:00,70.7,36.0,30.15,ESE,107,0.0,4.0,28,0.00,,SCT,0.00,VWS V14.01,2013-05-20 20:36:00,
2013-05-20 13:41:00,70.5,36.8,30.15,ENE,58,4.0,8.1,29,0.00,,SCT,0.00,VWS V14.01,2013-05-20 20:41:00,
2013-05-20 13:46:00,72.0,37.1,30.15,ESE,113,0.0,3.6,28,0.00,,SCT,0.00,VWS V14.01,2013-05-20 20:46:00,
2013-05-20 13:52:00,72.3,36.5,30.15,NW,312,0.0,3.6,27,0.00,,SCT,0.00,VWS V14.01,2013-05-20 20:52:00,
2013-05-20 13:57:00,72.0,36.2,30.15,SE,144,3.6,4.5,27,0.00,,SCT,0.00,VWS V14.01,2013-05-20 20:57:00,
2013-05-20 14:02:00,71.1,35.4,30.15,SSE,160,4.5,5.8,27,0.00,,SCT,0.00,VWS V14.01,2013-05-20 21:02:00,
2013-05-20 14:07:00,70.7,34.2,30.15,South,182,2.7,5.8,26,0.00,,SCT,0.00,VWS V14.01,2013-05-20 21:07:00,
2013-05-20 14:12:00,70.9,35.3,30.15,SE,127,2.7,5.8,27,0.00,,SCT,0.00,VWS V14.01,2013-05-20 21:12:00,
2013-05-20 14:17:00,71.2,35.6,30.15,SSE,158,0.0,4.0,27,0.00,,SCT,0.00,VWS V14.01,2013-05-20 21:17:00,
2013-05-20 14:22:00,72.0,34.2,30.15,SSW,197,8.3,8.7,25,0.00,,SCT,0.00,VWS V14.01,2013-05-20 21:22:00,
2013-05-20 14:27:00,71.8,32.0,30.15,WSW,247,2.7,9.6,23,0.00,,SCT,0.00,VWS V14.01,2013-05-20 21:27:00,
2013-05-20 14:32:00,72.5,33.7,30.15,SSW,205,0.0,0.0,24,0.00,,SCT,0.00,VWS V14.01,2013-05-20 21:32:00,
2013-05-20 14:37:00,73.6,33.5,30.15,SE,146,3.1,7.6,23,0.00,,SCT,0.00,VWS V14.01,2013-05-20 21:37:00,
2013-05-20 14:42:00,73.4,33.4,30.15,SE,130,4.0,7.6,23,0.00,,SCT,0.00,VWS V14.01,2013-05-20 21:42:00,
2013-05-20 14:47:00,73.2,32.1,30.15,SSE,153,5.4,9.6,22,0.00,,SCT,0.00,VWS V14.01,2013-05-20 21:47:00,
2013-05-20 14:52:00,73.0,32.0,30.15,South,178,6.3,9.6,22,0.00,,SCT,0.00,VWS V14.01,2013-05-20 21:52:00,
2013-05-20 14:57:00,73.6,31.3,30.15,East,94,0.0,9.6,21,0.00,,SCT,0.00,VWS V14.01,2013-05-20 21:57:00,
2013-05-20 15:03:00,73.6,31.3,30.15,SSE,153,6.3,8.7,21,0.00,,SCT,0.00,VWS V14.01,2013-05-20 22:03:00,
2013-05-20 15:08:00,73.4,31.1,30.12,SW,214,8.3,8.7,21,0.00,,SCT,0.00,VWS V14.01,2013-05-20 22:08:00,
2013-05-20 15:13:00,73.4,31.1,30.12,SE,144,4.9,8.7,21,0.00,,SCT,0.00,VWS V14.01,2013-05-20 22:13:00,
2013-05-20 15:18:00,73.6,31.3,30.12,SSE,153,8.1,8.1,21,0.00,,SCT,0.00,VWS V14.01,2013-05-20 22:18:00,
2013-05-20 15:23:00,74.1,31.7,30.12,South,170,4.9,8.3,21,0.00,,SCT,0.00,VWS V14.01,2013-05-20 22:23:00,
2013-05-20 15:28:00,73.9,31.6,30.12,SSW,196,0.0,8.3,21,0.00,,SCT,0.00,VWS V14.01,2013-05-20 22:28:00,
2013-05-20 15:33:00,74.3,31.9,30.12,South,176,7.6,7.6,21,0.00,,SCT,0.00,VWS V14.01,2013-05-20 22:33:00,
2013-05-20 15:38:00,74.5,32.0,30.12,SE,129,5.8,10.1,21,0.00,,SCT,0.00,VWS V14.01,2013-05-20 22:38:00,
2013-05-20 15:43:00,74.8,32.3,30.12,SE,127,3.1,10.1,21,0.00,,SCT,0.00,VWS V14.01,2013-05-20 22:43:00,
2013-05-20 15:48:00,74.8,32.3,30.12,SE,136,5.8,8.3,21,0.00,,SCT,0.00,VWS V14.01,2013-05-20 22:48:00,
2013-05-20 15:54:00,75.4,31.6,30.09,South,186,0.0,8.3,20,0.00,,SCT,0.00,VWS V14.01,2013-05-20 22:54:00,
2013-05-20 15:59:00,75.2,31.4,30.09,SE,138,8.3,8.7,20,0.00,,SCT,0.00,VWS V14.01,2013-05-20 22:59:00,
2013-05-20 16:04:00,75.0,32.5,30.09,South,171,4.0,8.3,21,0.00,,SCT,0.00,VWS V14.01,2013-05-20 23:04:00,
2013-05-20 16:09:00,75.0,32.5,30.09,South,188,5.4,8.3,21,0.00,,SCT,0.00,VWS V14.01,2013-05-20 23:09:00,
2013-05-20 16:14:00,75.0,32.5,30.09,East,85,0.0,8.7,21,0.00,,SCT,0.00,VWS V14.01,2013-05-20 23:14:00,
2013-05-20 16:19:00,75.4,31.6,30.09,SE,137,7.6,10.1,20,0.00,,SCT,0.00,VWS V14.01,2013-05-20 23:19:00,
2013-05-20 16:24:00,75.0,32.5,30.09,SE,144,7.6,11.9,21,0.00,,SCT,0.00,VWS V14.01,2013-05-20 23:24:00,
2013-05-20 16:29:00,75.2,32.6,30.09,WSW,237,3.1,11.9,21,0.00,,SCT,0.00,VWS V14.01,2013-05-20 23:29:00,
2013-05-20 16:34:00,76.1,32.2,30.09,SE,128,2.7,5.4,20,0.00,,SCT,0.00,VWS V14.01,2013-05-20 23:34:00,
2013-05-20 16:39:00,76.5,32.5,30.09,SE,144,4.9,6.3,20,0.00,,SCT,0.00,VWS V14.01,2013-05-20 23:39:00,
2013-05-20 16:44:00,77.0,32.9,30.09,WSW,249,0.0,6.3,20,0.00,,SCT,0.00,VWS V14.01,2013-05-20 23:44:00,
2013-05-20 16:49:00,77.7,33.5,30.09,South,183,0.0,0.0,20,0.00,,SCT,0.00,VWS V14.01,2013-05-20 23:49:00,
2013-05-20 16:54:00,78.3,35.2,30.09,East,95,0.0,0.0,21,0.00,,SCT,0.00,VWS V14.01,2013-05-20 23:54:00,
2013-05-20 16:59:00,79.2,34.7,30.09,WNW,294,0.0,2.7,20,0.00,,SCT,0.00,VWS V14.01,2013-05-20 23:59:00,
2013-05-20 17:04:00,79.3,34.8,30.06,WSW,243,0.0,0.0,20,0.00,,SCT,0.00,VWS V14.01,2013-05-21 00:04:00,
2013-05-20 17:09:00,79.5,35.0,30.06,SSW,195,0.0,0.0,20,0.00,,SCT,0.00,VWS V14.01,2013-05-21 00:09:00,
2013-05-20 17:15:00,79.9,35.3,30.06,WNW,300,0.0,0.0,20,0.00,,SCT,0.00,VWS V14.01,2013-05-21 00:15:00,
2013-05-20 17:20:00,80.2,35.6,30.06,NNW,329,0.0,6.3,20,0.00,,SCT,0.00,VWS V14.01,2013-05-21 00:20:00,
2013-05-20 17:25:00,80.1,35.4,30.06,ENE,64,0.0,6.3,20,0.00,,SCT,0.00,VWS V14.01,2013-05-21 00:25:00,
2013-05-20 17:30:00,79.7,35.1,30.06,SE,140,0.0,0.0,20,0.00,,SCT,0.00,VWS V14.01,2013-05-21 00:30:00,
2013-05-20 17:35:00,79.3,34.8,30.06,NE,42,0.0,3.6,20,0.00,,SCT,0.00,VWS V14.01,2013-05-21 00:35:00,
2013-05-20 17:40:00,79.0,34.5,30.06,NW,315,0.0,5.8,20,0.00,,SCT,0.00,VWS V14.01,2013-05-21 00:40:00,
2013-05-20 17:45:00,78.4,34.1,30.06,South,189,0.0,0.0,20,0.00,,SCT,0.00,VWS V14.01,2013-05-21 00:45:00,
2013-05-20 17:50:00,77.7,33.5,30.06,ESE,110,0.0,0.0,20,0.00,,SCT,0.00,VWS V14.01,2013-05-21 00:50:00,
2013-05-20 17:55:00,78.1,33.8,30.06,ESE,110,0.0,0.0,20,0.00,,SCT,0.00,VWS V14.01,2013-05-21 00:55:00,
2013-05-20 18:00:00,78.3,33.9,30.06,SE,131,0.0,0.0,20,0.00,,SCT,0.00,VWS V14.01,2013-05-21 01:00:00,
2013-05-20 18:05:00,78.1,33.8,30.06,ENE,69,0.0,4.9,20,0.00,,SCT,0.00,VWS V14.01,2013-05-21 01:05:00,
2013-05-20 18:10:00,77.7,33.5,30.06,SSW,203,0.0,4.9,20,0.00,,SCT,0.00,VWS V14.01,2013-05-21 01:10:00,
2013-05-20 18:16:00,75.7,31.9,30.06,SSE,162,5.4,6.3,20,0.00,,SCT,0.00,VWS V14.01,2013-05-21 01:16:00,
2013-05-20 18:21:00,76.3,33.5,30.03,NNW,329,4.0,6.3,21,0.00,,SCT,0.00,VWS V14.01,2013-05-21 01:21:00,
2013-05-20 18:26:00,77.2,33.0,30.03,NNW,339,0.0,6.3,20,0.00,,SCT,0.00,VWS V14.01,2013-05-21 01:26:00,
2013-05-20 18:31:00,77.7,33.5,30.03,NNW,332,0.0,0.0,20,0.00,,SCT,0.00,VWS V14.01,2013-05-21 01:31:00,
2013-05-20 18:36:00,78.3,33.9,30.03,NW,324,0.0,5.4,20,0.00,,SCT,0.00,VWS V14.01,2013-05-21 01:36:00,
2013-05-20 18:41:00,78.1,33.8,30.03,NW,326,0.0,5.4,20,0.00,,SCT,0.00,VWS V14.01,2013-05-21 01:41:00,
2013-05-20 18:46:00,78.4,34.1,30.03,North,350,0.0,0.0,20,0.00,,SCT,0.00,VWS V14.01,2013-05-21 01:46:00,
2013-05-20 18:51:00,78.6,34.2,30.03,NNW,330,0.0,0.0,20,0.00,,SCT,0.00,VWS V14.01,2013-05-21 01:51:00,
2013-05-20 18:56:00,78.3,33.9,30.03,WNW,302,0.0,0.0,20,0.00,,SCT,0.00,VWS V14.01,2013-05-21 01:56:00,
2013-05-20 19:01:00,78.3,33.9,30.03,NNW,331,0.0,0.0,20,0.00,,SCT,0.00,VWS V14.01,2013-05-21 02:01:00,
2013-05-20 19:06:00,77.7,33.5,30.03,SE,132,0.0,0.0,20,0.00,,SCT,0.00,VWS V14.01,2013-05-21 02:06:00,
2013-05-20 19:11:00,77.7,33.5,30.03,NNW,339,0.0,5.4,20,0.00,,SCT,0.00,VWS V14.01,2013-05-21 02:11:00,
2013-05-20 19:16:00,77.2,33.0,30.03,North,4,0.0,0.0,20,0.00,,SCT,0.00,VWS V14.01,2013-05-21 02:16:00,
2013-05-20 19:21:00,76.5,33.7,30.03,WNW,295,0.0,5.8,21,0.00,,SCT,0.00,VWS V14.01,2013-05-21 02:21:00,
2013-05-20 19:27:00,75.2,32.6,30.03,NNW,337,3.1,5.8,21,0.00,,SCT,0.00,VWS V14.01,2013-05-21 02:27:00,
2013-05-20 19:32:00,74.5,33.2,30.03,NNW,345,0.0,0.0,22,0.00,,SCT,0.00,VWS V14.01,2013-05-21 02:32:00,
2013-05-20 19:37:00,73.8,33.7,30.03,NNW,327,0.0,8.1,23,0.00,,SCT,0.00,VWS V14.01,2013-05-21 02:37:00,
2013-05-20 19:42:00,73.0,35.2,30.03,NW,318,3.1,8.1,25,0.00,,SCT,0.00,VWS V14.01,2013-05-21 02:42:00,
2013-05-20 19:47:00,72.7,35.8,30.03,West,277,6.3,6.3,26,0.00,,SCT,0.00,VWS V14.01,2013-05-21 02:47:00,
2013-05-20 19:52:00,72.1,36.3,30.03,NW,307,2.2,6.3,27,0.00,,SCT,0.00,VWS V14.01,2013-05-21 02:52:00,
2013-05-20 19:57:00,71.2,37.4,30.03,NNW,332,6.3,8.3,29,0.00,,SCT,0.00,VWS V14.01,2013-05-21 02:57:00,
2013-05-20 20:02:00,70.7,37.8,30.03,NNW,327,2.7,4.9,30,0.00,,SCT,0.00,VWS V14.01,2013-05-21 03:02:00,
2013-05-20 20:07:00,70.3,38.3,30.03,NW,320,3.6,6.3,31,0.00,,SCT,0.00,VWS V14.01,2013-05-21 03:07:00,
2013-05-20 20:12:00,69.6,38.5,30.03,NW,320,0.0,7.2,32,0.00,,SCT,0.00,VWS V14.01,2013-05-21 03:12:00,
2013-05-20 20:17:00,68.7,38.5,30.03,NW,321,0.0,5.4,33,0.00,,SCT,0.00,VWS V14.01,2013-05-21 03:17:00,
2013-05-20 20:23:00,68.4,38.2,30.03,NW,325,5.8,5.8,33,0.00,,SCT,0.00,VWS V14.01,2013-05-21 03:23:00,
2013-05-20 20:28:00,67.5,37.4,30.03,NNW,334,0.0,5.8,33,0.00,,SCT,0.00,VWS V14.01,2013-05-21 03:28:00,
2013-05-20 20:33:00,66.9,37.7,30.03,NNW,337,0.0,0.0,34,0.00,,SCT,0.00,VWS V14.01,2013-05-21 03:33:00,
2013-05-20 20:38:00,66.6,37.3,30.03,NNW,337,0.0,0.0,34,0.00,,SCT,0.00,VWS V14.01,2013-05-21 03:38:00,
2013-05-20 20:43:00,66.2,37.0,30.03,NNW,331,0.0,0.0,34,0.00,,SCT,0.00,VWS V14.01,2013-05-21 03:43:00,
2013-05-20 20:48:00,65.7,37.3,30.03,NNW,332,0.0,0.0,35,0.00,,SCT,0.00,VWS V14.01,2013-05-21 03:48:00,
2013-05-20 20:53:00,65.5,37.8,30.03,NW,311,0.0,0.0,36,0.00,,SCT,0.00,VWS V14.01,2013-05-21 03:53:00,
2013-05-20 20:58:00,65.1,37.5,30.03,NNW,331,0.0,0.0,36,0.00,,SCT,0.00,VWS V14.01,2013-05-21 03:58:00,
2013-05-20 21:01:00,64.9,37.4,30.03,NNW,327,5.8,5.8,36,0.00,,SCT,0.00,VWS V14.01,2013-05-21 04:01:00,
2013-05-20 21:05:00,64.4,36.9,30.03,NW,304,3.1,7.6,36,0.00,,SCT,0.00,VWS V14.01,2013-05-21 04:05:00,
2013-05-20 21:10:00,63.9,37.1,30.03,NW,326,5.8,7.6,37,0.00,,SCT,0.00,VWS V14.01,2013-05-21 04:10:00,
2013-05-20 21:15:00,63.3,37.3,30.03,WNW,300,2.7,7.6,38,0.00,,SCT,0.00,VWS V14.01,2013-05-21 04:15:00,
2013-05-20 21:20:00,63.0,37.0,30.03,West,277,0.0,6.3,38,0.00,,SCT,0.00,VWS V14.01,2013-05-21 04:20:00,
2013-05-20 21:25:00,62.8,37.5,30.03,SSW,208,0.0,6.3,39,0.00,,SCT,0.00,VWS V14.01,2013-05-21 04:25:00,
2013-05-20 21:30:00,62.6,38.0,30.03,SSW,197,0.0,0.0,40,0.00,,SCT,0.00,VWS V14.01,2013-05-21 04:30:00,
2013-05-20 21:35:00,62.2,37.6,30.03,SW,235,0.0,0.0,40,0.00,,SCT,0.00,VWS V14.01,2013-05-21 04:35:00,
2013-05-20 21:40:00,61.7,37.8,30.03,NW,304,3.1,4.0,41,0.00,,SCT,0.00,VWS V14.01,2013-05-21 04:40:00,
2013-05-20 21:45:00,61.0,37.8,30.03,SSE,160,4.0,4.0,42,0.00,,SCT,0.00,VWS V14.01,2013-05-21 04:45:00,
2013-05-20 21:50:00,60.4,38.4,30.03,WSW,241,4.0,7.6,44,0.00,,SCT,0.00,VWS V14.01,2013-05-21 04:50:00,
2013-05-20 21:55:00,60.1,38.1,30.03,NW,326,2.2,8.3,44,0.00,,SCT,0.00,VWS V14.01,2013-05-21 04:55:00,
2013-05-20 22:00:00,59.7,37.2,30.03,West,265,5.8,5.8,43,0.00,,SCT,0.00,VWS V14.01,2013-05-21 05:00:00,
2013-05-20 22:05:00,59.4,36.3,30.03,WSW,256,4.0,8.3,42,0.00,,SCT,0.00,VWS V14.01,2013-05-21 05:05:00,
2013-05-20 22:10:00,59.2,34.9,30.03,West,261,3.6,8.3,40,0.00,,SCT,0.00,VWS V14.01,2013-05-21 05:10:00,
2013-05-20 22:15:00,59.2,34.9,30.03,WNW,285,3.1,3.1,40,0.00,,SCT,0.00,VWS V14.01,2013-05-21 05:15:00,
2013-05-20 22:21:00,58.8,34.6,30.00,South,179,0.0,8.1,40,0.00,,SCT,0.00,VWS V14.01,2013-05-21 05:21:00,
2013-05-20 22:26:00,58.6,34.4,30.00,WSW,256,0.0,8.1,40,0.00,,SCT,0.00,VWS V14.01,2013-05-21 05:26:00,
2013-05-20 22:31:00,58.5,34.9,30.00,South,191,0.0,0.0,41,0.00,,SCT,0.00,VWS V14.01,2013-05-21 05:31:00,
2013-05-20 22:36:00,58.1,36.3,30.00,SE,143,3.6,3.6,44,0.00,,SCT,0.00,VWS V14.01,2013-05-21 05:36:00,
2013-05-20 22:41:00,57.7,36.0,30.00,SSE,158,5.4,7.2,44,0.00,,SCT,0.00,VWS V14.01,2013-05-21 05:41:00,
2013-05-20 22:46:00,57.6,35.8,30.00,West,264,2.2,3.6,44,0.00,,SCT,0.00,VWS V14.01,2013-05-21 05:46:00,
2013-05-20 22:51:00,57.2,35.5,30.00,SSW,202,0.0,4.5,44,0.00,,SCT,0.00,VWS V14.01,2013-05-21 05:51:00,
2013-05-20 22:56:00,56.8,35.7,30.00,SE,131,0.0,6.3,45,0.00,,SCT,0.00,VWS V14.01,2013-05-21 05:56:00,
2013-05-20 23:01:00,56.5,35.4,30.00,ESE,121,5.4,5.4,45,0.00,,SCT,0.00,VWS V14.01,2013-05-21 06:01:00,
2013-05-20 23:06:00,56.1,35.1,30.00,SSW,195,3.6,8.3,45,0.00,,SCT,0.00,VWS V14.01,2013-05-21 06:06:00,
2013-05-20 23:11:00,55.4,35.0,30.00,SE,140,3.6,8.3,46,0.00,,SCT,0.00,VWS V14.01,2013-05-21 06:11:00,
2013-05-20 23:16:00,55.0,35.7,30.00,WSW,253,2.7,6.3,48,0.00,,SCT,0.00,VWS V14.01,2013-05-21 06:16:00,
2013-05-20 23:21:00,54.9,36.1,30.00,SW,224,0.0,6.3,49,0.00,,SCT,0.00,VWS V14.01,2013-05-21 06:21:00,
2013-05-20 23:26:00,54.7,34.9,30.00,South,170,2.7,7.2,47,0.00,,SCT,0.00,VWS V14.01,2013-05-21 06:26:00,
2013-05-20 23:32:00,54.5,34.2,30.00,WNW,293,4.9,6.7,46,0.00,,SCT,0.00,VWS V14.01,2013-05-21 06:32:00,
2013-05-20 23:37:00,54.3,32.3,30.00,West,270,6.3,7.2,43,0.00,,SCT,0.00,VWS V14.01,2013-05-21 06:37:00,
2013-05-20 23:42:00,54.1,31.6,30.00,WNW,302,2.7,7.2,42,0.00,,SCT,0.00,VWS V14.01,2013-05-21 06:42:00,
2013-05-20 23:47:00,54.1,31.0,30.00,NNW,339,4.9,4.9,41,0.00,,SCT,0.00,VWS V14.01,2013-05-21 06:47:00,
2013-05-20 23:52:00,54.1,30.4,30.00,WSW,248,2.7,6.3,40,0.00,,SCT,0.00,VWS V14.01,2013-05-21 06:52:00,
2013-05-20 23:57:00,54.1,30.4,30.00,WSW,244,4.0,6.3,40,0.00,,SCT,0.00,VWS V14.01,2013-05-21 06:57:00,